IZ1ERR Weather Reports


Display with metric or nautical units.
time (UTC)temp
F
wind
direction
speed
MPH
gust
MPH
rain 1hr
in
rain 24hr
in
rain mn
in
humidity
%
barometer
mb
20260506204016 56 0.0 0.0 0.00 0.71 0.71 88 1009.9
20260506203036 56 0.0 0.0 0.00 0.71 0.71 87 1009.7
20260506202037 56 0.0 0.0 0.00 0.71 0.71 86 1009.7
20260506201017 57 0.0 0.0 0.00 0.71 0.71 86 1009.5
20260506200017 57 0.0 0.0 0.00 0.71 0.71 86 1009.4
20260506195037 57 0.0 0.0 0.00 0.71 0.71 86 1009.3
20260506194016 57 0.0 0.0 0.00 0.71 0.71 86 1009.1
20260506193017 57 0.0 0.0 0.00 0.71 0.71 87 1008.9
20260506192016 57 0.0 0.0 0.00 0.71 0.71 86 1008.7
20260506191016 57 0.0 0.0 0.00 0.71 0.71 85 1008.6
20260506190018 57 0.0 0.0 0.00 0.71 0.71 85 1008.5
20260506185017 58 0.0 0.0 0.00 0.71 0.71 84 1008.3
20260506184016 58 0.0 0.0 0.00 0.71 0.71 82 1008.1
20260506183016 58 0.0 1.0 0.00 0.71 0.71 81 1007.8
20260506182036 59 0.0 1.0 0.00 0.71 0.71 81 1007.6
20260506181016 59 0.0 1.0 0.00 0.71 0.71 81 1007.5
20260506180016 59 0.0 0.0 0.00 0.71 0.71 80 1007.4
20260506175037 59 0.0 1.0 0.00 0.71 0.71 79 1007.2
20260506174016 60 45 1.0 4.0 0.00 0.71 0.71 78 1007.0
20260506173016 60 67 5.0 10.0 0.00 0.71 0.71 76 1006.8
20260506172017 62 67 8.0 15.0 0.00 0.71 0.71 75 1006.7
20260506171017 63 67 1.0 15.0 0.00 0.71 0.71 66 1006.5
20260506170017 64 0.0 2.0 0.00 0.71 0.71 62 1006.2
20260506165016 64 0.0 5.0 0.00 0.71 0.71 67 1006.1
20260506164016 63 67 2.0 5.0 0.00 0.71 0.71 70 1006.0
20260506163016 63 67 2.0 6.0 0.00 0.71 0.71 68 1005.9
20260506162016 63 0.0 3.0 0.00 0.71 0.71 68 1005.7
20260506161016 63 0 2.0 6.0 0.00 0.71 0.71 70 1005.6
20260506160016 63 337 3.0 5.0 0.00 0.71 0.71 72 1005.6
20260506155017 62 337 2.0 8.0 0.00 0.71 0.71 73 1005.6
20260506154036 62 337 3.0 9.0 0.00 0.71 0.71 75 1005.8
20260506153016 61 337 4.0 8.0 0.00 0.71 0.71 72 1006.1
20260506152016 60 315 1.0 7.0 0.00 0.71 0.71 76 1006.2
20260506151017 59 315 2.0 7.0 0.00 0.71 0.71 78 1006.4
20260506150016 59 0 1.0 8.0 0.00 0.71 0.71 77 1006.6
20260506145016 60 337 3.0 7.0 0.00 0.71 0.71 75 1006.7
20260506144016 61 0 2.0 8.0 0.00 0.71 0.71 74 1006.4
20260506143016 61 315 1.0 6.0 0.00 0.71 0.71 66 1006.3
20260506142036 61 315 3.0 9.0 0.00 0.71 0.71 63 1006.5
20260506141016 63 270 2.0 10.0 0.00 0.71 0.71 69 1006.8
20260506140016 64 0.0 0.0 0.00 0.71 0.71 68 1006.7
20260506135016 64 0.0 3.0 0.00 0.71 0.71 68 1006.6
20260506134017 64 67 3.0 8.0 0.00 0.71 0.71 68 1006.6
20260506133016 63 45 2.0 8.0 0.00 0.71 0.71 70 1006.6
20260506132016 63 67 3.0 9.0 0.00 0.71 0.71 71 1006.6
20260506131016 63 67 4.0 9.0 0.00 0.71 0.71 71 1006.7
20260506130016 65 0.0 2.0 0.00 0.71 0.71 70 1006.7
20260506125016 65 112 2.0 9.0 0.00 0.71 0.71 66 1006.7
20260506124016 65 90 1.0 8.0 0.00 0.71 0.71 67 1006.7
20260506123016 66 180 1.0 3.0 0.00 0.71 0.71 64 1006.8
20260506122016 64 90 1.0 6.0 0.00 0.71 0.71 65 1006.8
20260506121016 64 67 2.0 8.0 0.00 0.71 0.71 66 1006.8
20260506120016 66 157 1.0 5.0 0.00 0.71 0.71 63 1006.9
20260506115016 65 157 1.0 4.0 0.00 0.71 0.71 66 1007.0
20260506114016 65 135 2.0 6.0 0.00 0.71 0.71 66 1007.0
20260506113016 65 180 2.0 5.0 0.00 0.71 0.71 68 1006.8
20260506112016 64 0.0 4.0 0.00 0.71 0.71 72 1006.9
20260506111016 63 0.0 3.0 0.00 0.71 0.71 74 1007.0
20260506110016 62 0.0 4.0 0.00 0.71 0.71 80 1007.1
20260506105036 60 135 1.0 5.0 0.00 0.71 0.71 80 1007.3
20260506104016 60 0.0 3.0 0.00 0.71 0.71 85 1007.3
20260506103016 58 0.0 3.0 0.00 0.71 0.71 90 1007.2
20260506102016 56 0.0 2.0 0.00 0.71 0.71 92 1007.1
20260506101016 56 180 1.0 3.0 0.00 0.71 0.71 94 1007.0
20260506100016 55 225 1.0 4.0 0.01 0.71 0.71 94 1007.1
20260506095016 54 225 3.0 7.0 0.01 0.71 0.71 94 1007.1
20260506094016 54 247 2.0 5.0 0.02 0.71 0.71 96 1007.1
20260506093056 54 225 2.0 5.0 0.03 0.71 0.71 97 1007.1
20260506092016 53 247 2.0 5.0 0.04 0.71 0.71 96 1007.2
20260506091016 52 270 3.0 5.0 0.03 0.70 0.70 96 1007.4
20260506090016 52 247 3.0 5.0 0.06 0.70 0.70 96 1007.5
20260506085056 52 0.0 4.0 0.07 0.70 0.70 96 1007.5
20260506084016 52 0.0 4.0 0.07 0.69 0.69 97 1007.5
20260506083016 51 0.0 1.0 0.11 0.68 0.68 97 1007.7
20260506082016 51 0 1.0 7.0 0.17 0.66 0.66 97 1007.7
20260506081016 51 0.0 0.0 0.19 0.66 0.66 97 1007.7
20260506073016 51 0 1.0 7.0 0.18 0.57 0.57 97 1007.6
20260506072016 52 0.0 1.0 0.13 0.50 0.49 97 1007.8
20260506071016 53 0.0 0.0 0.12 0.48 0.47 97 1007.6
20260506062016 53 247 2.0 4.0 0.22 0.37 0.36 97 1007.8
20260506061036 53 0.0 0.0 0.21 0.36 0.34 97 1007.8
20260506051016 53 0.0 0.0 0.07 0.22 0.13 97 1008.2
20260506045016 53 0.0 0.0 0.05 0.25 0.11 97 1008.2
20260506044016 53 0.0 0.0 0.05 0.27 0.10 97 1008.5
20260506043016 53 0.0 1.0 0.04 0.28 0.08 97 1008.5
20260506042016 53 0.0 0.0 0.03 0.28 0.07 97 1008.5
20260506041016 53 0.0 1.0 0.02 0.29 0.06 97 1008.5
20260506040016 53 0.0 1.0 0.01 0.28 0.05 97 1008.5
20260506035016 53 0.0 1.0 0.01 0.29 0.05 97 1008.5
20260506034016 53 0.0 1.0 0.00 0.29 0.04 97 1008.7
20260506033016 53 0.0 0.0 0.00 0.28 0.03 97 1008.8
20260506032016 53 0.0 0.0 0.00 0.28 0.03 97 1009.0
20260506031016 53 0.0 0.0 0.00 0.28 0.03 97 1009.1
20260506030016 53 0.0 0.0 0.00 0.28 0.03 96 1009.2
20260506025016 53 0.0 0.0 0.00 0.28 0.03 96 1009.3
20260506024016 53 0.0 0.0 0.00 0.28 0.03 96 1009.4
20260506023016 53 0.0 0.0 0.00 0.28 0.03 96 1009.5
20260506022016 53 0.0 0.0 0.01 0.28 0.03 96 1009.6
20260506021016 53 0.0 0.0 0.01 0.28 0.03 96 1009.6
20260506020016 53 0.0 0.0 0.02 0.28 0.03 96 1009.6
20260506015016 53 0.0 0.0 0.03 0.28 0.03 96 1009.7
20260506014036 53 0.0 0.0 0.03 0.28 0.03 96 1009.6
20260506013016 53 0.0 0.0 0.03 0.27 0.03 96 1009.8
20260506012016 54 0.0 0.0 0.02 0.26 0.02 96 1010.0
20260506011016 54 0.0 0.0 0.02 0.26 0.02 95 1010.3
20260506010016 54 0.0 1.0 0.01 0.26 0.01 95 1010.4
20260506005016 54 0.0 1.0 0.00 0.26 0.00 95 1010.6
20260506004016 54 0.0 0.0 0.00 0.25 0.00 95 1010.8
20260506003016 54 0.0 0.0 0.00 0.25 0.00 95 1010.8
20260506002036 54 0.0 0.0 0.00 0.25 0.00 95 1010.8
20260506001016 54 0.0 0.0 0.00 0.25 0.00 95 1011.0
20260506000016 54 0.0 0.0 0.00 0.25 0.00 95 1011.1
20260505235016 54 0.0 0.0 0.00 0.25 0.00 95 1011.2
20260505234016 54 0.0 1.0 0.00 0.25 0.00 94 1011.2
20260505233016 54 0.0 0.0 0.00 0.25 0.00 94 1011.3
20260505232016 54 0.0 0.0 0.00 0.25 0.00 94 1011.5
20260505231016 54 0.0 1.0 0.00 0.25 0.00 94 1011.6
20260505230016 54 0.0 1.0 0.00 0.25 0.00 94 1011.8
20260505225036 54 0.0 0.0 0.00 0.25 0.00 94 1011.6
20260505224016 54 0.0 0.0 0.00 0.25 0.00 94 1011.5
20260505223016 54 0.0 0.0 0.00 0.25 0.00 94 1011.6
20260505222016 54 0.0 0.0 0.00 0.25 0.00 94 1011.9
20260505221056 54 0.0 0.0 0.00 0.25 0.00 94 1011.9
20260505220016 54 0.0 0.0 0.00 0.25 0.00 94 1011.8
20260505215017 54 0.0 0.0 0.00 0.25 0.25 94 1012.1
20260505214017 54 0.0 0.0 0.00 0.25 0.25 94 1012.0
20260505213017 54 0.0 0.0 0.00 0.25 0.25 94 1012.1
20260505212017 54 0.0 0.0 0.00 0.25 0.25 94 1012.1
20260505211017 54 0.0 0.0 0.00 0.25 0.25 94 1012.2
20260505210017 54 0.0 0.0 0.00 0.25 0.25 94 1012.3
20260505205037 54 0.0 0.0 0.00 0.25 0.25 94 1012.3